Overview Statistics Trail Chart Weather Telemetry Raw packets
 

This is the latest recevied weather packets stored in our database for station/object WABI. If no packets are shown the sender has not sent any weather packets the latest 10 day(s).

<< 1 2 3 4 5 6 7 >>
Time Temp. Humidity Pressure Rain* Wind** Luminosity Snow
1788072617 32.22° C 59% 1010 hPa 0 mm - - -
1788070654 32.22° C 63% 1010 hPa 0 mm - - -
1788068679 32.78° C 63% 1010 hPa 0 mm - - -
1788066717 32.22° C 67% 1011 hPa 0 mm - - -
1788064750 31.11° C 70% 1011 hPa 0 mm - - -
1788062788 32.22° C 67% 1012 hPa 0 mm - - -
1788060821 32.22° C 63% 1012 hPa 0 mm - - -
1788058860 31.11° C 62% 1013 hPa 0 mm - - -
1788056897 30° C 66% 1014 hPa 0 mm - - -
1788054931 28.89° C 70% 1014 hPa 0 mm - - -
1788052964 27.22° C 84% 1014 hPa 0 mm - - -
1788051000 26.11° C 89% 1014 hPa 0 mm - - -
1788049038 25° C 94% 1014 hPa 0 mm - - -
1788047073 23.89° C 94% 1014 hPa 0 mm - - -
1788045113 22.78° C 99% 1014 hPa 0 mm - - -
1788043158 22.78° C 99% 1013 hPa 0 mm - - -
1788041218 22.78° C 99% 1013 hPa 0 mm - - -
1788029632 22.78° C 99% 1014 hPa 0 mm - - -
1788027692 22.78° C 99% 1014 hPa 0 mm - - -
1788025734 22.78° C 99% 1014 hPa 0 mm - - -
1788023473 22.78° C 99% 1014 hPa 0 mm - - -
1788021441 22.78° C 99% 1014 hPa 0 mm - - -
1788019450 22.78° C 99% 1014 hPa 0 mm - - -
1788017296 22.78° C 99% 1015 hPa 0 mm - - -
1788013091 22.78° C 99% 1015 hPa 0 mm - - -

* Rain latest hour (hover to see other rain measurements)
** Current wind speed in m/s (hover to see current wind gust speed)